Dewpoint
70 68 68 67 67 66 66 67 58 60 59 51 53 56 56 61 60 60 59 56 52 57 55 54 51 54 54 52 53 57 59 55 57 50 52 63 69 69 71 71 71 71 71 72 74 74 74 74 74 74 74 75 75 75 75 75 75 75 75 75 75 75 75 75 75 74 75 74 73 74 74 74 74 74 75 75 74 75 76 75 75 74 75 75 75 75 75 74 74 73 74 74 74 74 74 74 74
68 67 65 67 67 68 65 64 60 58 53 52 53 57 58 60 59 56 55 55 54 55 49 50 53 59 56 52 51 52 56 57 58 60 63 66 66 69 69 71 71 70 70 70 73 73 73 75 74 75 75 75 75 75 75 75 74 75 75 75 76 75 74 75 74 74 73 74 73 73 74 73 74 74 74 75 74 74 74 75 75 75 75 75 75 75 75 74 75 75 75 74 74 73 74 75 75
65 65 65 68 68 67 65 65 54 56 50 51 53 56 60 57 56 56 60 60 56 51 49 57 59 57 52 51 50 51 53 59 59 61 64 66 67 69 70 70 71 71 70 71 72 73 74 75 74 74 75 75 75 75 75 75 75 75 75 75 75 75 74 75 73 73 74 73 74 74 74 74 73 74 74 74 74 74 75 74 75 75 75 75 74 75 75 75 75 75 75 75 75 75 75 75 75
66 67 67 67 64 65 62 60 57 57 51 51 53 59 57 57 57 60 63 58 50 49 55 56 58 61 54 52 51 55 57 57 60 61 64 64 65 69 70 70 72 70 70 71 72 73 73 74 75 75 75 75 75 75 75 75 75 75 76 75 75 74 75 75 73 72 72 73 74 74 74 74 74 74 75 75 74 74 75 74 74 75 75 74 74 74 75 75 75 74 74 74 74 74 74 74 74
67 68 68 67 65 61 61 58 60 59 50 53 54 58 58 59 60 62 61 56 52 52 56 58 56 63 61 59 59 56 58 58 60 61 63 65 66 69 70 71 70 70 70 71 71 72 72 75 75 75 75 75 76 76 75 75 75 75 75 75 75 75 75 74 73 73 72 72 73 74 74 74 74 74 74 75 74 74 74 75 75 74 74 74 74 74 75 75 74 74 75 74 74 74 74 74 73
67 67 69 68 63 66 62 58 57 56 58 58 54 58 59 61 62 62 60 57 55 52 57 58 53 55 56 58 57 55 58 57 60 62 65 65 67 69 70 70 69 68 68 69 72 74 71 76 75 75 75 76 76 75 75 75 76 75 74 74 74 74 74 74 74 73 72 72 73 74 74 75 75 75 74 75 74 73 75 75 74 75 75 74 74 75 75 74 74 74 75 74 74 74 74 74 74
67 68 68 68 66 66 59 55 57 55 59 60 58 60 60 62 62 61 61 58 57 58 56 57 55 55 55 58 60 64 62 60 60 62 65 67 68 69 69 68 68 68 68 70 71 71 73 76 76 75 76 75 75 75 75 75 75 74 74 74 74 74 74 73 74 73 73 73 74 74 74 75 74 74 74 74 74 74 74 74 74 74 74 74 74 74 74 75 75 75 75 75 75 74 74 74 74
68 69 65 64 59 60 57 54 56 57 59 62 61 61 63 63 62 61 61 58 57 57 60 57 55 57 59 60 60 65 61 62 62 65 67 67 68 69 69 68 66 66 67 70 71 73 77 76 75 76 76 75 75 75 75 75 74 74 74 74 74 75 75 74 74 73 73 74 74 74 74 74 74 74 74 74 74 74 74 75 74 74 75 74 74 74 75 74 75 75 75 75 75 76 75 74 74
67 65 68 63 59 57 57 54 58 60 60 62 62 64 65 64 61 60 61 61 59 56 59 58 56 54 59 59 61 63 63 64 64 68 67 67 68 68 68 66 65 65 66 68 70 71 74 76 76 75 75 75 75 75 74 75 74 74 74 75 74 74 74 74 74 73 74 74 74 74 74 74 74 74 73 74 74 74 75 74 74 74 74 74 74 74 75 75 74 75 75 75 76 75 76 75 74
65 63 61 60 58 55 53 55 58 60 61 63 61 64 65 64 62 62 62 60 58 57 60 58 57 60 60 60 60 60 63 64 66 67 67 68 68 68 67 66 64 65 66 67 70 71 73 76 75 75 75 75 75 74 75 75 74 74 74 74 74 74 74 73 74 74 74 74 74 74 74 74 74 74 73 74 74 74 74 74 74 74 75 74 74 74 74 74 74 74 74 74 75 76 75 75 74
64 65 65 61 59 53 53 57 58 61 61 63 63 65 65 64 63 62 63 61 60 59 59 58 58 57 58 61 63 64 64 65 66 66 67 68 68 68 66 66 64 65 65 68 70 70 73 74 75 75 75 74 74 74 74 75 74 74 74 74 74 74 73 73 74 74 74 74 73 74 74 74 74 74 74 74 75 75 74 74 75 74 74 74 74 74 74 74 74 74 74 74 74 75 75 75 74
63 61 63 57 55 56 57 57 58 61 63 62 62 64 65 65 64 62 62 61 61 59 58 58 57 58 58 60 62 63 64 64 65 66 67 68 67 67 67 65 65 65 68 69 71 72 73 74 75 75 74 74 74 73 73 74 74 74 74 74 74 74 73 73 73 74 74 74 74 74 74 74 74 73 74 75 74 74 74 74 74 74 74 74 74 74 75 75 75 74 74 74 74 75 76 75 75
62 61 59 59 59 55 55 57 57 59 60 60 62 64 65 65 64 63 62 62 62 60 59 60 58 58 57 60 62 63 62 64 66 67 67 67 67 67 66 65 65 66 68 70 70 70 72 73 73 74 74 74 74 74 74 74 74 74 74 74 75 75 74 74 75 75 75 75 74 74 74 74 74 74 75 75 74 74 74 75 74 74 75 74 75 74 75 74 75 75 76 75 75 75 75 75 75
62 63 60 57 57 56 58 58 59 57 59 61 63 65 65 64 63 64 62 62 62 61 60 59 59 58 59 59 60 60 63 65 66 67 67 67 66 65 65 64 65 68 70 71 71 71 72 72 73 73 75 75 75 74 74 74 75 75 75 74 75 75 74 74 74 74 74 75 75 75 74 74 74 74 75 75 75 75 75 74 75 75 75 74 74 75 74 75 75 76 76 76 75 75 75 75 75
63 63 60 57 56 55 59 55 56 55 59 62 65 65 64 64 65 64 64 63 63 65 62 60 59 56 55 54 56 58 63 65 66 66 67 67 67 65 66 64 65 68 69 70 70 71 71 72 74 73 75 74 75 74 74 75 74 75 75 75 74 74 74 74 73 74 75 75 74 74 75 74 75 74 75 75 75 75 75 75 75 74 74 74 74 74 74 75 75 75 75 75 75 75 75 74 75
63 62 60 57 55 54 58 58 57 55 59 63 65 65 64 65 65 63 64 64 65 64 63 60 59 61 55 53 55 60 64 65 66 66 67 67 67 65 65 64 66 68 70 70 70 72 72 72 73 74 74 74 74 73 75 75 75 75 74 75 75 75 74 75 74 74 74 75 75 74 74 74 75 74 75 74 74 74 74 74 74 74 74 73 74 74 74 74 75 75 75 75 75 75 75 74 74
65 64 58 54 53 56 57 58 57 54 61 64 66 65 63 63 65 67 68 66 64 62 64 61 60 58 55 54 58 62 64 66 67 66 67 67 66 64 65 65 66 68 69 70 71 72 71 71 72 73 72 72 72 74 74 74 75 74 75 75 76 75 75 75 74 75 74 75 75 75 74 75 75 75 75 74 74 74 74 75 75 75 74 74 74 73 73 74 75 75 75 75 75 75 75 75 75
64 59 56 53 54 56 59 59 61 62 62 63 63 63 64 64 66 65 67 65 64 63 63 61 59 58 57 60 61 63 66 66 66 65 65 65 64 63 62 65 65 66 69 70 71 72 71 72 73 72 73 74 73 72 72 74 74 76 77 76 76 75 74 74 75 75 75 75 74 75 75 74 74 74 74 74 74 74 74 74 74 74 74 74 74 73 73 74 75 75 75 75 75 75 75 73 75
59 58 55 53 55 57 61 61 62 61 61 64 63 63 63 63 63 64 62 63 63 62 62 62 60 61 61 61 62 64 65 65 64 63 62 62 61 61 60 64 66 65 68 70 71 71 72 72 73 72 74 74 73 73 71 74 76 76 75 75 75 74 74 75 75 74 75 75 75 74 75 74 74 75 74 74 74 74 73 74 74 74 73 74 73 74 74 75 75 75 75 75 75 75 76 73 73
60 58 54 56 58 59 62 61 62 63 64 64 64 63 63 63 64 65 62 61 61 59 59 60 59 60 60 61 62 63 64 64 63 61 60 60 61 61 61 62 64 66 66 68 70 70 71 72 73 74 75 73 73 72 73 74 74 75 74 74 74 74 75 75 75 75 75 75 74 75 74 75 74 74 74 74 74 74 74 75 75 75 75 74 74 74 75 75 75 75 75 74 75 73 70 66 66
60 58 55 55 58 59 62 61 62 65 65 64 64 64 64 64 64 64 61 60 60 62 59 59 57 58 60 60 61 62 62 61 60 60 60 61 61 60 60 61 63 66 67 68 70 70 70 71 73 74 75 73 73 72 72 72 74 74 73 72 73 73 74 74 74 75 74 75 75 74 74 74 73 73 74 75 74 75 74 73 74 73 74 73 75 75 73 73 74 72 73 75 69 68 67 68 67
56 57 54 55 57 58 61 62 64 64 65 65 65 63 64 65 64 63 61 59 59 61 60 59 58 59 60 60 60 61 60 60 59 60 60 60 60 59 61 62 63 65 68 67 69 70 69 70 72 73 73 74 73 72 72 73 74 71 72 72 72 73 73 74 73 74 73 74 73 71 73 74 74 75 74 74 74 73 71 70 71 71 71 73 73 72 70 71 70 68 69 68 66 66 65 67 67
55 54 53 53 59 60 62 62 65 64 64 65 63 64 65 63 62 63 62 62 62 63 62 59 59 59 60 61 61 60 59 60 60 60 60 58 60 58 60 62 63 65 67 67 68 69 69 69 71 71 72 74 74 73 72 72 71 71 72 71 71 71 72 72 73 73 74 74 72 72 71 70 69 69 71 71 70 71 71 70 70 71 72 71 71 69 71 71 70 69 70 71 70 65 64 68 68
53 50 51 58 62 62 62 64 64 64 65 64 65 65 63 60 59 62 62 64 64 62 62 60 59 60 61 60 60 60 60 60 60 60 58 58 58 57 60 61 62 65 67 67 67 68 69 68 71 71 71 71 73 72 72 72 71 70 70 72 72 71 71 71 70 72 73 74 74 71 68 67 66 67 70 70 70 71 70 71 71 70 71 70 71 71 71 71 71 71 73 73 71 70 65 66 64
49 50 55 61 64 64 64 64 64 65 66 65 64 62 61 62 61 62 62 64 64 63 63 62 60 60 60 60 60 61 61 60 59 58 57 58 57 57 60 63 64 65 65 67 67 68 68 69 70 70 71 71 70 70 70 70 70 70 69 69 71 72 71 70 71 72 71 71 72 72 69 65 65 66 67 69 70 71 70 71 69 69 71 71 72 70 72 72 72 72 72 71 72 72 67 65 66
48 50 56 62 64 64 64 64 65 67 66 65 63 62 63 63 64 62 63 65 64 62 61 60 60 59 59 59 61 61 61 60 59 58 58 59 58 58 59 62 63 63 64 66 67 68 68 68 68 68 69 71 70 68 70 71 70 70 71 71 72 72 71 72 71 69 70 69 70 72 68 66 66 67 69 69 69 70 69 70 71 71 70 71 70 72 72 71 70 70 72 72 70 71 69 68 66
43 55 60 62 65 64 65 65 67 66 66 65 63 63 63 63 62 59 63 65 63 61 60 60 60 59 59 58 59 60 61 59 58 57 58 58 58 57 58 61 63 64 65 65 66 68 69 68 68 69 70 72 70 69 70 71 71 71 71 70 71 71 72 72 70 68 67 67 71 74 73 72 68 67 69 69 70 69 70 71 71 72 70 70 72 71 73 73 72 72 72 72 72 72 69 67 66
52 57 62 63 64 64 66 65 66 66 65 66 64 63 64 63 64 59 63 64 63 60 59 60 59 59 59 59 60 62 60 60 59 58 56 57 57 55 57 60 63 64 65 64 66 68 67 66 67 68 69 71 72 69 72 71 71 71 72 71 70 72 72 69 68 69 69 68 71 73 73 72 73 71 71 71 71 70 71 70 71 72 72 72 73 73 73 74 74 74 73 73 73 73 70 67 68
57 58 59 62 63 62 64 63 64 64 64 65 64 62 61 61 62 62 64 64 65 63 58 59 59 59 59 60 61 62 61 61 60 57 56 56 56 54 55 59 62 64 65 65 67 66 66 67 68 69 69 71 71 69 69 70 70 70 71 70 71 70 70 69 68 69 71 72 73 73 75 75 76 74 74 72 72 71 71 71 71 73 74 74 74 73 74 75 74 72 73 73 71 71 68 67 66
59 60 60 60 59 61 63 65 64 63 64 66 64 54 55 59 63 63 64 64 64 63 59 58 58 58 59 60 60 61 61 61 59 58 57 58 57 55 55 58 62 64 66 67 66 66 66 67 68 68 70 70 71 69 71 70 71 71 71 70 72 70 68 68 69 70 70 71 73 74 74 75 75 75 75 74 72 71 73 73 72 73 75 76 75 75 73 73 73 73 71 70 70 70 67 67 66
56 58 56 53 53 57 63 64 63 62 65 65 65 56 57 60 63 64 64 65 63 59 58 57 57 57 59 59 59 60 61 62 58 57 57 58 56 55 56 58 62 65 67 67 67 68 67 68 67 67 70 71 71 71 71 72 71 70 71 71 71 72 70 68 66 69 70 70 72 73 75 75 75 75 75 74 73 72 71 71 72 73 76 76 73 74 74 74 74 73 71 70 70 68 67 67 66
54 53 51 51 50 56 62 64 63 61 64 66 63 58 58 59 61 64 65 64 63 59 59 57 57 56 57 58 58 58 60 60 57 57 57 57 55 55 55 57 61 64 67 68 68 68 67 68 68 67 69 70 72 72 73 73 73 74 73 73 72 73 70 69 67 68 70 70 71 74 75 76 76 76 75 74 72 72 71 71 72 75 76 75 74 74 75 74 74 73 73 71 70 66 67 65 66
51 55 50 50 53 55 59 63 64 63 62 64 62 58 60 60 62 64 65 65 63 60 59 58 57 56 57 57 57 57 58 58 58 56 57 57 57 55 55 56 61 65 66 67 69 69 69 68 69 66 67 69 71 71 73 74 74 74 74 72 70 73 69 70 69 70 71 72 71 72 75 76 76 75 75 75 73 73 71 72 73 75 75 75 75 74 73 73 73 68 74 74 72 68 64 62 64
51 49 49 51 50 52 54 60 63 63 62 61 63 59 60 61 62 63 65 65 64 60 60 59 57 57 58 57 55 56 57 58 58 58 57 57 58 58 55 59 60 65 68 68 69 68 67 67 67 67 69 68 72 72 74 73 73 75 74 73 74 72 70 68 69 70 71 70 72 73 75 75 75 75 76 76 75 73 73 73 74 75 75 75 75 74 74 73 73 71 73 73 72 69 65 64 63
47 47 51 49 52 52 53 56 59 61 62 61 61 61 61 64 63 63 64 65 64 61 60 58 57 58 59 57 55 56 57 57 57 59 56 57 58 59 57 57 60 65 66 68 69 70 70 69 69 71 70 70 70 74 74 74 74 75 73 74 73 74 73 71 70 70 70 71 70 73 75 75 75 75 76 76 76 73 73 73 74 74 74 74 75 73 73 74 74 72 72 73 73 69 67 66 65
51 45 48 51 47 49 54 55 59 59 59 60 61 58 60 64 64 63 63 64 63 62 62 60 59 58 60 57 55 57 57 56 57 59 57 57 58 59 58 56 60 65 66 69 71 71 71 70 71 72 71 70 71 73 73 72 72 72 71 72 72 72 73 72 73 71 71 70 71 73 75 75 74 75 76 76 76 75 74 73 74 74 74 74 75 73 73 73 74 73 73 71 71 69 68 67 65
48 46 48 49 57 49 54 54 59 62 60 58 59 60 59 61 62 64 63 63 63 61 61 61 61 61 59 56 57 57 58 55 57 58 59 58 59 60 59 59 63 65 68 70 70 70 72 71 72 71 71 73 71 72 72 71 72 73 72 69 69 70 73 72 71 71 71 72 74 74 75 73 75 75 76 77 76 75 75 74 75 75 74 74 75 75 74 74 74 73 73 74 69 68 66 65 65
44 44 46 48 55 50 55 57 58 62 58 57 59 57 58 60 61 63 65 63 61 61 61 61 60 60 60 59 59 58 60 57 59 60 58 58 59 60 61 63 67 66 69 70 71 71 71 71 71 71 71 72 72 72 72 73 73 72 71 70 67 68 70 70 71 72 70 71 75 75 75 75 75 76 77 77 77 76 75 73 75 74 73 75 75 75 75 74 74 73 72 71 69 67 66 65 65
46 46 46 43 45 52 56 61 60 62 59 56 57 58 58 59 62 62 63 63 62 62 62 61 60 60 61 60 61 61 59 60 59 59 59 59 60 60 62 64 65 66 67 68 70 70 71 71 72 73 71 71 72 73 73 74 73 74 71 70 68 67 69 70 69 71 71 71 72 75 76 76 76 77 77 77 77 76 75 75 75 75 75 75 75 75 74 74 73 72 73 71 68 67 66 66 69
43 47 45 45 48 49 51 55 60 62 59 56 57 55 60 60 61 63 64 63 63 64 65 63 62 61 60 60 62 61 60 60 59 60 58 59 61 61 62 64 65 65 68 67 68 70 69 72 73 74 73 71 72 72 73 72 73 75 75 75 74 72 71 72 73 72 73 72 71 72 75 75 75 75 75 75 75 76 75 75 74 74 75 75 74 74 74 74 74 73 72 71 70 66 64 66 66
26 37 51 48 53 52 50 56 57 59 59 58 58 55 55 59 58 60 63 64 65 65 65 64 62 63 63 63 62 63 61 62 61 59 60 60 61 61 63 65 65 65 66 67 67 67 66 70 73 74 73 72 72 73 73 73 74 74 75 75 75 74 73 72 71 69 71 72 71 72 73 75 75 76 75 76 75 76 76 76 75 75 75 75 74 73 74 72 71 73 73 73 71 68 65 66 66
26 25 31 45 48 49 50 55 54 53 55 54 55 49 53 56 57 58 61 62 62 63 63 63 63 63 63 62 62 63 64 63 62 61 60 60 61 62 64 65 65 65 66 67 66 66 67 69 72 74 73 73 71 73 74 74 73 73 74 73 72 72 72 70 69 70 69 68 68 70 73 72 73 75 76 76 76 76 76 76 75 75 75 74 74 74 74 71 71 73 73 72 71 70 70 67 65
26 26 28 33 42 48 52 52 50 48 46 51 51 50 47 54 52 57 59 60 60 63 63 62 62 63 63 62 62 62 62 62 62 61 60 59 61 62 64 65 64 64 66 66 66 66 67 70 73 73 74 73 72 74 74 74 74 74 74 72 71 72 71 70 72 71 70 69 71 71 73 73 75 74 74 76 76 77 76 76 76 75 74 75 74 74 74 70 69 71 72 72 71 72 71 69 68
28 20 22 26 38 45 47 48 48 45 48 52 49 47 49 52 53 56 60 60 60 61 62 62 62 63 62 62 60 62 62 61 61 62 62 61 61 62 63 64 64 63 64 65 66 66 68 72 73 73 74 74 73 74 74 74 74 74 74 73 72 72 70 72 72 73 73 73 72 72 72 73 74 74 74 75 76 76 75 76 76 75 74 75 73 73 72 70 71 73 74 74 74 73 72 70 69
24 15 17 21 30 42 41 39 40 43 41 48 47 50 47 46 54 56 58 58 59 60 62 62 63 62 63 62 60 61 62 62 62 61 62 61 62 61 63 64 63 62 62 64 66 67 68 71 74 74 74 75 74 74 74 73 74 74 74 73 73 73 72 72 72 73 73 73 74 73 74 73 74 75 74 75 75 75 75 76 76 75 75 74 73 72 70 70 72 73 74 75 74 73 72 71 72
32 29 34 35 33 37 38 38 40 44 41 40 49 49 45 45 54 54 58 57 57 59 61 62 63 63 63 62 62 61 62 63 62 62 62 63 62 62 62 62 62 61 62 64 65 66 67 70 73 74 74 74 74 75 74 74 74 74 74 74 73 73 73 74 72 73 74 74 74 74 75 75 72 73 75 75 76 75 76 76 75 75 74 72 72 73 72 72 73 74 74 73 74 73 73 72 71
35 40 41 42 38 42 41 44 46 47 41 39 46 48 45 41 52 51 53 54 56 56 58 61 63 62 62 63 63 62 62 62 62 62 63 62 62 62 61 61 63 62 63 63 63 66 67 68 71 73 74 73 74 75 74 74 74 74 74 74 74 74 73 74 73 74 74 75 74 73 74 75 74 73 72 74 74 74 76 76 74 74 75 75 73 73 73 70 70 71 71 74 74 74 72 74 72
35 32 39 39 42 43 42 45 49 41 35 45 46 47 46 41 47 49 53 56 55 56 56 59 61 64 63 64 64 62 62 62 62 62 62 63 64 63 63 62 62 63 63 63 63 65 67 68 70 72 74 74 74 74 74 73 72 73 73 74 74 74 74 72 73 73 72 73 72 72 74 74 74 74 74 73 73 72 75 76 76 76 76 75 74 74 74 72 71 71 72 74 74 74 74 74 73
31 32 37 34 42 39 38 49 37 37 38 43 42 45 47 45 47 48 51 54 54 56 57 57 60 63 64 64 63 63 62 61 62 63 63 62 62 62 62 64 65 65 65 65 64 64 66 68 70 71 73 74 75 74 74 74 73 73 73 73 74 74 75 74 73 73 73 73 73 73 74 74 74 74 73 72 72 73 75 77 77 76 77 76 77 77 76 75 76 73 74 73 74 74 74 75 72
31 33 34 34 38 38 34 34 36 41 38 42 42 50 44 47 48 50 51 53 53 54 56 58 60 62 64 65 63 63 63 62 62 63 63 63 63 63 63 64 64 65 65 65 64 65 67 67 70 70 73 74 74 74 73 74 73 73 74 73 73 73 74 74 73 72 72 73 74 73 71 70 73 72 72 73 72 72 72 74 77 77 79 79 78 78 77 78 77 76 75 75 73 75 74 74 73
31 33 32 33 37 36 35 33 33 33 42 37 46 43 42 40 49 51 51 52 54 54 54 58 61 63 65 66 65 63 63 64 63 63 62 62 62 64 63 63 64 66 65 66 65 67 68 69 71 72 72 73 74 74 74 74 73 73 73 73 72 73 72 72 72 72 73 72 71 72 73 71 70 72 72 74 74 74 74 75 76 76 78 78 78 76 75 76 77 76 76 75 76 74 74 73 72
25 28 33 31 32 37 35 36 35 37 38 41 44 38 44 47 54 54 55 53 53 54 56 59 62 64 65 66 67 63 62 63 63 63 63 63 64 64 63 65 65 66 67 66 66 68 70 71 73 73 73 73 72 74 73 73 73 73 74 74 73 73 73 72 73 74 73 72 72 72 73 74 72 72 73 74 73 74 74 74 75 75 77 77 77 77 76 75 77 75 76 76 76 72 73 74 73
20 22 27 31 31 31 39 36 34 37 37 36 44 40 39 48 47 52 52 52 53 54 54 56 61 63 65 64 67 64 63 64 64 64 63 64 64 64 64 64 64 65 65 67 69 71 72 73 73 73 73 73 72 74 72 73 73 73 73 73 72 72 71 71 69 71 69 71 72 72 71 71 72 74 71 72 73 74 75 75 74 73 77 77 77 77 76 76 76 75 74 76 75 73 75 75 73
18 18 22 31 34 35 35 30 42 34 34 33 36 37 35 38 37 54 54 51 52 53 53 55 61 61 63 63 65 67 65 64 66 66 65 65 65 65 64 65 66 65 65 68 71 72 73 73 73 73 73 74 71 71 70 71 73 73 73 73 73 72 70 69 68 68 69 70 71 71 71 70 71 70 70 68 72 73 74 74 75 75 75 76 76 76 76 76 76 75 75 75 74 76 75 76 75
19 18 20 26 32 32 35 35 32 33 29 31 37 35 32 35 41 46 52 51 51 53 55 57 60 60 61 63 65 65 65 64 65 66 65 64 64 65 66 66 67 67 68 69 70 71 73 73 72 73 72 72 70 67 67 70 71 70 70 71 71 72 71 70 69 71 70 70 69 69 69 70 69 72 73 73 74 72 74 74 76 75 75 75 76 75 76 77 77 76 75 73 74 76 75 75 76
18 21 17 21 29 29 29 31 33 34 33 30 32 33 30 38 33 48 52 54 55 55 56 56 60 61 61 62 64 64 64 65 66 66 65 65 64 65 66 66 68 69 68 68 71 70 69 71 72 73 73 73 71 67 68 68 68 69 68 70 72 73 73 71 70 71 69 69 69 69 70 68 69 70 71 72 72 71 72 72 72 72 72 73 74 74 74 76 77 76 74 72 73 76 74 75 74
16 16 20 25 24 24 26 27 28 29 31 30 28 29 32 46 57 58 58 58 58 56 57 57 58 61 62 62 64 67 69 68 66 66 66 65 64 64 66 67 68 68 68 69 70 70 70 70 71 73 73 71 70 68 69 70 68 68 69 70 69 71 70 70 69 70 70 69 69 70 69 69 71 70 71 71 71 72 73 72 71 73 72 74 76 75 75 76 76 77 76 75 75 75 75 74 75
15 14 15 19 19 21 26 29 26 26 30 29 28 27 36 51 56 58 57 57 58 57 58 58 59 60 61 61 63 65 68 70 70 69 66 64 65 64 65 67 66 67 69 70 70 70 70 68 68 71 69 72 71 71 72 73 71 70 69 69 70 69 70 69 68 67 68 68 68 69 70 71 69 71 70 70 72 70 72 73 72 72 74 74 75 76 74 74 75 76 76 72 72 75 76 75 75